Weather History for KSTJ - August, 2014

Change the Weather History Date:

Monday, August 25, 2014

  Actual Average Record
Temperature  
Mean Temperature 82 °F 74 °F  
Max Temperature 92 °F 85 °F 108 °F (1936)
Min Temperature 71 °F 62 °F 49 °F (1982)
Degree Days  
Heating Degree Days 0 0  
Month to date heating degree days 0 0  
Since 1 June heating degree days 7 9  
Since 1 July heating degree days 6 1  
Cooling Degree Days 17 9  
Month to date cooling degree days 274 274  
Year to date cooling degree days 973 1028  
Since 1 June cooling degree days 812 915  
Growing Degree Days 32 (Base 50)    
Moisture  
Dew Point 72 °F    
Average Humidity 75    
Maximum Humidity 93    
Minimum Humidity 56    
Precipitation  
Precipitation 0.05 in 0.14 in 2.80 in (1987)
Month to date precipitation 1.23 3.12  
Year to date precipitation 21.32 25.44  
Sea Level Pressure  
Sea Level Pressure 29.92 in    
Wind  
Wind Speed 5 mph (SE)    
Max Wind Speed 15 mph    
Max Gust Speed 20 mph    
Visibility 10 miles    
Events Rain , Thunderstorm    
T = Trace of Precipitation, MM = Missing Value Source: NWS Daily Summary

Daily Weather History Graph

Daily Weather History Graph

Search for Another Location

Airport or City:

Trip Planner

Search our weather history database for the weather conditions in past years. The results will help you decide how hot, cold, wet, or windy it might be!

Date:

Astronomy

Aug. 25, 2014 Rise Set
Actual Time 6:41 AM CDT 8:01 PM CDT
Civil Twilight 6:12 AM CDT 8:29 PM CDT
Nautical Twilight 5:39 AM CDT 9:03 PM CDT
Astronomical Twilight 5:03 AM CDT 9:38 PM CDT
Moon 6:47 AM CDT (8/25) 7:52 PM CDT (8/25)
Length of Visible Light 14h 16m
Length of Day
13h 20m
New Moon, 0% of the Moon is Illuminated
Aug 25
New Moon
Sep 2
First Quarter
Sep 8
Full
Sep 15
Last Quarter
Sep 24
New

Hourly Weather History & Observations

Time (CDT) Temp. Heat Index Dew Point Humidity Pressure Visibility Wind Dir Wind Speed Gust Speed Precip Events Conditions
12:53 AM 79.0 °F - 70.0 °F 74% 29.87 in 10.0 mi South 4.6 mph - N/A   Clear
1:53 AM 78.1 °F - 70.0 °F 76% 29.88 in 10.0 mi South 4.6 mph - N/A   Clear
2:37 AM 79.0 °F - 69.1 °F 72% 29.90 in 10.0 mi SE 4.6 mph - N/A Thunderstorm Mostly Cloudy
2:53 AM 79.0 °F - 70.0 °F 74% 29.88 in 10.0 mi Calm Calm - N/A Thunderstorm Thunderstorm
3:11 AM 78.1 °F - 69.1 °F 74% 29.90 in 10.0 mi NNW 4.6 mph - N/A Thunderstorm Scattered Clouds
3:21 AM 75.9 °F - 70.0 °F 82% 29.91 in 10.0 mi North 10.4 mph - N/A Thunderstorm Thunderstorm
3:36 AM 77.0 °F - 70.0 °F 79% 29.91 in 10.0 mi Calm Calm - N/A Thunderstorm Mostly Cloudy
4:12 AM 79.0 °F - 68.0 °F 69% 29.92 in 10.0 mi SSW 15.0 mph - 0.00 in Rain , Thunderstorm Light Thunderstorms and Rain
4:53 AM 73.9 °F - 70.0 °F 87% 29.88 in 3.0 mi NE 5.8 mph - 0.05 in Thunderstorm Mostly Cloudy
5:01 AM 73.9 °F - 70.0 °F 87% 29.91 in 10.0 mi ESE 6.9 mph - N/A Thunderstorm Thunderstorm
5:16 AM 73.9 °F - 70.0 °F 87% 29.92 in 10.0 mi SE 3.5 mph - N/A Thunderstorm Scattered Clouds
5:31 AM 73.9 °F - 71.1 °F 91% 29.93 in 10.0 mi Variable 3.5 mph - N/A   Scattered Clouds
5:53 AM 73.0 °F - 71.1 °F 93% 29.90 in 10.0 mi NNE 4.6 mph - N/A Thunderstorm Mostly Cloudy
6:27 AM 73.0 °F - 71.1 °F 93% 29.94 in 10.0 mi WNW 3.5 mph - 0.00 in   Clear
7:53 AM 73.9 °F - 71.1 °F 91% 29.92 in 10.0 mi ESE 5.8 mph - N/A   Clear
9:53 AM 82.0 °F 86.7 °F 72.0 °F 71% 29.94 in 10.0 mi SW 10.4 mph - N/A   Clear
10:53 AM 84.9 °F 92.1 °F 73.9 °F 69% 29.96 in 10.0 mi SW 9.2 mph - N/A   Clear
11:53 AM 87.1 °F 97.3 °F 75.9 °F 69% 29.97 in 10.0 mi Variable 4.6 mph - N/A   Clear
12:53 PM 89.1 °F 98.0 °F 73.9 °F 61% 29.96 in 10.0 mi Calm Calm - N/A   Clear
1:53 PM 90.0 °F 97.9 °F 73.0 °F 57% 29.95 in 10.0 mi NW 4.6 mph - N/A   Clear
2:53 PM 91.0 °F 100.4 °F 73.9 °F 57% 29.94 in 10.0 mi NE 5.8 mph - N/A   Clear
3:53 PM 91.0 °F 101.6 °F 75.0 °F 59% 29.93 in 10.0 mi SSW 5.8 mph - N/A   Clear
4:53 PM 91.9 °F 103.2 °F 75.0 °F 58% 29.91 in 10.0 mi Variable 6.9 mph - N/A   Clear
5:53 PM 91.0 °F 99.3 °F 73.0 °F 55% 29.91 in 10.0 mi South 6.9 mph - N/A   Clear
6:53 PM 90.0 °F 99.0 °F 73.9 °F 59% 29.90 in 10.0 mi ESE 4.6 mph - N/A   Clear
7:53 PM 82.9 °F 90.8 °F 75.9 °F 79% 29.92 in 10.0 mi North 5.8 mph - N/A   Clear
10:53 PM 81.0 °F 86.7 °F 75.0 °F 82% 29.95 in 10.0 mi SSE 4.6 mph - N/A   Clear
11:53 PM 77.0 °F - 73.9 °F 90% 29.97 in 10.0 mi NW 3.5 mph - N/A   Clear